QPF
0.17 0.13 0.07 0.06 0.05 0.04 0.03 0.03 0.03 0.02 0.00 0.00 0.00 0.00 0.00 0.00 0.00 0.00 0.00 0.00 0.00 0.00 0.00 0.00 0.00 0.00 0.00 0.00 0.00 0.00 0.00 0.00 0.00 0.00 0.00 0.00 0.00 0.00 0.00 0.00 0.00 0.00 0.00
0.14 0.17 0.11 0.07 0.05 0.03 0.02 0.04 0.02 0.01 0.00 0.00 0.00 0.00 0.00 0.00 0.00 0.00 0.00 0.00 0.00 0.00 0.00 0.00 0.00 0.00 0.00 0.00 0.00 0.00 0.00 0.00 0.00 0.00 0.00 0.00 0.00 0.00 0.00 0.00 0.00 0.00 0.00
0.15 0.15 0.14 0.10 0.05 0.02 0.02 0.02 0.01 0.01 0.00 0.00 0.00 0.00 0.00 0.00 0.00 0.00 0.00 0.00 0.00 0.00 0.00 0.00 0.00 0.00 0.00 0.00 0.00 0.00 0.00 0.00 0.00 0.00 0.00 0.00 0.00 0.00 0.00 0.00 0.00 0.00 0.00
0.00 0.00 0.00 0.00 0.00 0.00 0.00 0.00 0.00 0.00 0.00 0.00 0.00 0.00 0.00 0.00 0.00 0.00 0.00 0.00 0.00 0.00 0.00 0.00 0.00 0.00 0.00 0.00 0.00 0.00 0.00 0.00 0.00 0.00 0.00 0.00 0.00 0.00 0.00 0.00 0.00 0.00 0.00
0.00 0.00 0.00 0.00 0.00 0.00 0.00 0.00 0.00 0.00 0.00 0.00 0.00 0.00 0.00 0.00 0.00 0.00 0.00 0.00 0.00 0.00 0.00 0.00 0.00 0.00 0.00 0.00 0.00 0.00 0.00 0.00 0.00 0.00 0.00 0.00 0.00 0.00 0.00 0.00 0.00 0.00 0.00
0.00 0.00 0.00 0.00 0.00 0.00 0.00 0.00 0.00 0.00 0.00 0.00 0.00 0.00 0.00 0.00 0.00 0.00 0.00 0.00 0.00 0.00 0.00 0.00 0.00 0.00 0.00 0.00 0.00 0.00 0.00 0.00 0.00 0.00 0.00 0.00 0.00 0.00 0.00 0.00 0.00 0.00 0.00
0.00 0.00 0.00 0.00 0.00 0.00 0.00 0.00 0.00 0.00 0.00 0.00 0.00 0.00 0.00 0.00 0.00 0.00 0.00 0.00 0.00 0.00 0.00 0.00 0.00 0.00 0.00 0.00 0.00 0.00 0.00 0.00 0.00 0.00 0.00 0.00 0.00 0.00 0.00 0.00 0.00 0.00 0.00
0.00 0.00 0.00 0.00 0.00 0.00 0.00 0.00 0.00 0.00 0.00 0.00 0.00 0.00 0.00 0.00 0.00 0.00 0.00 0.00 0.00 0.00 0.00 0.00 0.00 0.00 0.00 0.00 0.00 0.00 0.00 0.00 0.00 0.00 0.00 0.00 0.00 0.00 0.01 0.01 0.01 0.01 0.00
0.00 0.00 0.00 0.00 0.00 0.00 0.00 0.00 0.00 0.00 0.00 0.00 0.00 0.00 0.00 0.00 0.00 0.00 0.00 0.00 0.00 0.00 0.00 0.00 0.00 0.00 0.00 0.00 0.00 0.00 0.00 0.00 0.00 0.00 0.00 0.00 0.00 0.00 0.01 0.02 0.01 0.01 0.00
0.00 0.00 0.00 0.00 0.00 0.00 0.00 0.00 0.00 0.00 0.00 0.00 0.00 0.00 0.00 0.00 0.00 0.00 0.00 0.00 0.00 0.00 0.00 0.00 0.00 0.00 0.00 0.00 0.00 0.00 0.00 0.00 0.00 0.00 0.00 0.00 0.00 0.00 0.01 0.01 0.02 0.02 0.01
0.00 0.00 0.00 0.00 0.00 0.00 0.00 0.00 0.00 0.00 0.00 0.00 0.00 0.00 0.00 0.00 0.00 0.00 0.00 0.00 0.00 0.00 0.00 0.00 0.00 0.00 0.00 0.00 0.00 0.00 0.00 0.00 0.00 0.00 0.00 0.00 0.00 0.00 0.00 0.00 0.01 0.01 0.01
0.00 0.00 0.00 0.00 0.00 0.00 0.00 0.00 0.00 0.00 0.00 0.00 0.00 0.00 0.00 0.00 0.00 0.00 0.00 0.00 0.00 0.00 0.00 0.00 0.00 0.00 0.00 0.00 0.00 0.00 0.00 0.00 0.00 0.00 0.00 0.00 0.00 0.00 0.00 0.00 0.00 0.00 0.00
0.00 0.00 0.00 0.00 0.00 0.00 0.00 0.00 0.00 0.00 0.00 0.00 0.00 0.00 0.00 0.00 0.00 0.00 0.00 0.00 0.00 0.00 0.00 0.00 0.00 0.00 0.00 0.00 0.00 0.00 0.00 0.00 0.00 0.00 0.00 0.00 0.00 0.00 0.00 0.00 0.00 0.00 0.00
0.00 0.00 0.00 0.00 0.00 0.00 0.00 0.00 0.00 0.00 0.00 0.00 0.00 0.00 0.00 0.00 0.00 0.00 0.00 0.00 0.00 0.00 0.00 0.00 0.00 0.00 0.00 0.00 0.00 0.00 0.00 0.00 0.00 0.00 0.00 0.00 0.00 0.00 0.00 0.00 0.00 0.00 0.00
0.00 0.00 0.00 0.00 0.00 0.00 0.00 0.00 0.00 0.00 0.00 0.00 0.00 0.00 0.00 0.00 0.00 0.00 0.00 0.00 0.00 0.00 0.00 0.00 0.00 0.00 0.00 0.00 0.00 0.00 0.00 0.00 0.00 0.00 0.00 0.00 0.00 0.00 0.00 0.00 0.00 0.00 0.00
0.00 0.00 0.00 0.00 0.00 0.00 0.00 0.00 0.00 0.00 0.00 0.00 0.00 0.00 0.00 0.00 0.00 0.00 0.00 0.00 0.00 0.00 0.00 0.00 0.00 0.00 0.00 0.00 0.00 0.00 0.00 0.00 0.00 0.00 0.00 0.00 0.00 0.00 0.00 0.00 0.00 0.00 0.00
0.00 0.00 0.00 0.00 0.00 0.00 0.00 0.00 0.00 0.00 0.00 0.00 0.01 0.01 0.00 0.00 0.00 0.00 0.00 0.00 0.00 0.00 0.00 0.00 0.00 0.00 0.00 0.00 0.00 0.00 0.00 0.00 0.00 0.00 0.00 0.00 0.00 0.00 0.00 0.00 0.00 0.00 0.01
0.00 0.00 0.00 0.00 0.00 0.00 0.00 0.00 0.00 0.00 0.00 0.00 0.00 0.01 0.00 0.01 0.00 0.00 0.00 0.00 0.00 0.00 0.00 0.00 0.00 0.00 0.00 0.00 0.00 0.00 0.00 0.00 0.00 0.00 0.00 0.00 0.00 0.00 0.00 0.00 0.01 0.02 0.02
0.00 0.00 0.00 0.00 0.00 0.00 0.00 0.00 0.00 0.00 0.00 0.00 0.00 0.00 0.00 0.00 0.00 0.00 0.00 0.00 0.00 0.00 0.00 0.00 0.00 0.00 0.00 0.00 0.00 0.00 0.00 0.00 0.00 0.00 0.00 0.00 0.00 0.00 0.00 0.01 0.01 0.05 0.04
0.00 0.00 0.00 0.00 0.00 0.00 0.00 0.00 0.00 0.00 0.00 0.00 0.00 0.00 0.00 0.00 0.00 0.00 0.00 0.00 0.00 0.00 0.00 0.00 0.00 0.00 0.00 0.00 0.00 0.00 0.00 0.00 0.00 0.00 0.00 0.00 0.00 0.00 0.00 0.00 0.00 0.01 0.05
0.00 0.00 0.00 0.00 0.00 0.00 0.00 0.00 0.00 0.00 0.00 0.00 0.00 0.00 0.00 0.00 0.00 0.00 0.00 0.00 0.00 0.00 0.00 0.00 0.00 0.00 0.00 0.00 0.00 0.00 0.00 0.00 0.00 0.00 0.00 0.00 0.00 0.00 0.00 0.00 0.00 0.00 0.01
0.00 0.00 0.00 0.00 0.00 0.00 0.00 0.00 0.00 0.00 0.00 0.00 0.00 0.00 0.00 0.00 0.00 0.00 0.00 0.00 0.00 0.00 0.00 0.00 0.00 0.00 0.00 0.00 0.00 0.00 0.00 0.00 0.00 0.00 0.00 0.00 0.00 0.00 0.00 0.00 0.00 0.00 0.00
0.00 0.00 0.00 0.00 0.00 0.00 0.00 0.00 0.00 0.00 0.00 0.00 0.00 0.00 0.00 0.00 0.00 0.00 0.00 0.00 0.00 0.00 0.00 0.00 0.00 0.00 0.00 0.00 0.00 0.00 0.00 0.00 0.00 0.00 0.00 0.00 0.00 0.00 0.00 0.00 0.00 0.00 0.00
0.00 0.00 0.00 0.00 0.00 0.00 0.00 0.00 0.00 0.00 0.00 0.00 0.00 0.00 0.00 0.00 0.00 0.00 0.00 0.00 0.00 0.00 0.00 0.00 0.00 0.00 0.00 0.00 0.00 0.00 0.00 0.00 0.00 0.00 0.00 0.00 0.00 0.00 0.00 0.00 0.00 0.00 0.00
0.00 0.00 0.00 0.00 0.00 0.00 0.00 0.00 0.00 0.00 0.00 0.00 0.00 0.00 0.00 0.00 0.00 0.00 0.00 0.00 0.00 0.00 0.00 0.00 0.00 0.00 0.00 0.00 0.00 0.00 0.00 0.00 0.00 0.00 0.00 0.00 0.00 0.00 0.00 0.00 0.00 0.00 0.00
0.00 0.00 0.00 0.00 0.00 0.00 0.00 0.00 0.00 0.00 0.00 0.00 0.00 0.00 0.00 0.00 0.00 0.00 0.00 0.00 0.00 0.00 0.00 0.00 0.00 0.00 0.00 0.00 0.00 0.00 0.00 0.00 0.00 0.00 0.00 0.00 0.00 0.00 0.00 0.00 0.00 0.00 0.00
MSLP
1019.23 1019.68 1019.22 1020.32 1020.77 1020.93 1021.25 1021.60 1021.58 1021.71 1021.71 1022.17 1022.10 1022.43 1022.63 1022.68 1022.36 1022.42 1022.43 1022.66 1022.36 1022.31 1022.42 1022.36 1022.01 1021.84 1021.60 1021.39 1021.21 1020.95 1020.60 1020.23 1019.18 1017.57 1016.60 1015.79 1015.02 1014.42 1013.62 1013.18 1012.68 1012.01 1011.23
1017.91 1020.06 1020.17 1020.58 1021.19 1021.28 1021.53 1021.73 1021.74 1021.80 1021.71 1021.95 1022.21 1022.77 1023.00 1022.83 1022.55 1022.41 1022.63 1022.73 1022.38 1022.47 1022.58 1022.35 1022.17 1021.71 1021.49 1021.20 1020.94 1020.53 1020.25 1019.87 1019.21 1017.64 1016.89 1015.59 1015.07 1014.46 1013.64 1012.91 1012.25 1011.48 1010.83
1019.78 1019.61 1020.80 1021.17 1021.45 1021.36 1021.50 1021.74 1021.81 1022.00 1021.91 1022.07 1022.57 1022.63 1022.49 1022.55 1022.66 1022.68 1022.54 1022.54 1022.50 1022.36 1022.18 1022.00 1021.73 1021.47 1021.20 1020.73 1020.47 1019.99 1019.59 1019.06 1018.58 1017.70 1016.28 1016.01 1015.02 1014.39 1013.37 1012.67 1011.95 1011.23 1010.68
1020.65 1021.10 1020.92 1021.37 1021.83 1021.57 1021.41 1021.94 1021.81 1021.79 1021.96 1022.12 1022.08 1022.34 1022.44 1022.33 1022.46 1022.33 1022.17 1022.06 1022.05 1021.97 1021.75 1021.50 1021.08 1020.93 1020.73 1020.17 1019.63 1019.34 1018.88 1018.45 1017.79 1017.05 1016.18 1015.50 1015.02 1014.38 1013.48 1012.38 1011.22 1010.73 1009.96
1020.82 1020.81 1020.78 1021.09 1021.33 1021.40 1021.65 1021.88 1021.77 1021.74 1021.84 1022.09 1022.22 1022.06 1022.24 1022.24 1021.93 1021.81 1021.62 1021.69 1021.65 1021.33 1021.19 1020.96 1020.51 1020.31 1019.95 1019.32 1018.96 1018.53 1018.18 1017.64 1017.02 1016.27 1015.50 1015.00 1014.47 1013.92 1013.38 1012.47 1011.46 1010.69 1009.85
1020.66 1020.96 1021.33 1021.33 1021.59 1021.57 1021.93 1021.80 1021.69 1021.84 1021.82 1021.89 1022.00 1022.00 1021.89 1021.60 1021.05 1020.95 1021.15 1021.21 1020.95 1020.82 1020.50 1020.12 1019.87 1019.54 1019.26 1018.59 1018.37 1018.19 1017.73 1016.93 1016.29 1015.69 1014.79 1014.18 1013.71 1013.43 1012.87 1012.19 1011.50 1010.64 1009.38
1020.64 1020.88 1021.07 1021.31 1021.81 1021.80 1021.88 1021.90 1021.78 1021.77 1021.60 1021.67 1021.57 1021.55 1021.31 1020.87 1020.52 1020.30 1020.25 1020.76 1020.39 1020.35 1019.93 1019.56 1019.23 1018.99 1018.54 1018.07 1017.66 1017.31 1016.70 1016.15 1015.53 1014.93 1013.93 1013.41 1012.71 1012.57 1012.28 1011.72 1011.02 1010.25 1009.51
1020.87 1021.02 1020.98 1021.13 1021.15 1021.27 1021.49 1021.40 1021.33 1021.23 1021.24 1021.11 1021.04 1020.82 1020.61 1020.19 1019.91 1019.94 1019.70 1019.94 1019.65 1019.32 1019.04 1018.80 1018.69 1018.31 1017.79 1017.27 1016.83 1016.15 1015.51 1014.84 1014.13 1013.67 1012.98 1012.28 1011.74 1011.42 1011.31 1010.95 1010.34 1009.65 1008.98
1020.60 1020.66 1020.79 1020.87 1021.06 1021.33 1021.26 1021.18 1021.11 1021.04 1020.82 1020.63 1020.29 1020.18 1020.16 1019.81 1019.45 1019.11 1019.02 1019.21 1018.87 1018.52 1018.32 1018.42 1018.08 1017.58 1017.06 1016.75 1016.29 1015.31 1014.53 1013.67 1012.89 1012.40 1011.83 1011.31 1010.72 1010.28 1010.36 1010.31 1009.65 1009.16 1008.05
1020.59 1020.62 1020.61 1020.71 1020.86 1020.93 1020.76 1020.76 1020.66 1020.45 1020.19 1019.99 1019.66 1019.49 1019.18 1019.08 1018.62 1018.40 1018.50 1018.49 1018.31 1018.15 1017.89 1017.52 1017.17 1016.74 1016.63 1016.21 1015.87 1014.79 1013.65 1012.56 1011.75 1011.16 1010.66 1010.12 1009.60 1009.13 1009.10 1009.00 1008.59 1008.01 1007.45
1020.24 1020.32 1020.35 1020.45 1020.48 1020.43 1020.40 1020.28 1020.34 1020.13 1019.83 1019.58 1019.47 1019.00 1018.70 1018.36 1017.84 1017.44 1017.50 1017.64 1017.52 1017.39 1017.27 1016.76 1016.36 1016.22 1016.02 1015.50 1014.94 1014.32 1013.46 1012.48 1011.06 1010.36 1009.77 1009.25 1008.84 1008.49 1008.20 1007.79 1007.43 1006.98 1006.31
1020.02 1020.02 1019.96 1019.86 1019.89 1019.88 1019.95 1019.90 1019.82 1019.67 1019.40 1019.00 1018.74 1018.29 1017.73 1017.22 1016.95 1016.63 1016.62 1016.74 1016.81 1016.90 1016.64 1016.38 1016.03 1015.69 1015.45 1014.85 1014.36 1013.61 1012.87 1011.76 1010.61 1009.85 1009.24 1008.58 1008.12 1007.56 1007.03 1006.73 1006.19 1005.73 1005.34
1019.77 1019.75 1019.65 1019.61 1019.62 1019.58 1019.70 1019.58 1019.45 1019.16 1018.93 1018.61 1018.32 1017.92 1017.34 1016.70 1016.28 1016.12 1016.08 1015.92 1016.05 1016.26 1016.07 1015.94 1015.69 1015.38 1014.93 1014.21 1013.59 1013.02 1012.28 1011.51 1010.52 1009.48 1008.62 1007.85 1007.18 1006.63 1006.34 1005.97 1005.39 1004.74 1004.07
1019.54 1019.55 1019.47 1019.58 1019.38 1019.23 1019.19 1019.06 1018.88 1018.59 1018.28 1018.04 1017.72 1017.33 1016.82 1016.33 1015.88 1015.61 1015.56 1015.54 1015.56 1015.61 1015.58 1015.37 1015.10 1015.01 1014.61 1014.03 1013.20 1012.34 1011.83 1011.47 1010.62 1009.75 1008.65 1007.58 1006.49 1005.85 1005.38 1004.87 1004.38 1003.76 1003.21
1019.24 1019.22 1019.18 1019.15 1019.00 1018.70 1018.34 1018.20 1018.03 1017.45 1017.19 1017.05 1016.66 1016.50 1016.29 1015.89 1015.08 1014.85 1014.84 1014.82 1014.95 1014.84 1014.82 1014.61 1014.33 1014.24 1013.99 1013.61 1013.06 1012.41 1011.83 1011.30 1010.58 1009.86 1008.96 1007.80 1006.73 1005.67 1004.73 1003.88 1003.17 1002.70 1002.19
1019.06 1018.96 1018.79 1018.64 1018.34 1018.13 1017.88 1017.44 1016.78 1016.41 1015.92 1015.94 1015.74 1015.74 1015.21 1014.97 1014.51 1014.28 1014.20 1014.03 1014.06 1014.34 1014.35 1014.02 1013.75 1013.74 1013.63 1013.34 1012.99 1012.47 1011.99 1011.46 1010.82 1009.87 1009.00 1008.11 1007.02 1005.87 1004.55 1003.33 1002.37 1001.75 1001.06
1018.55 1018.36 1018.18 1018.00 1017.77 1017.55 1017.23 1017.05 1016.54 1015.36 1015.19 1014.86 1014.59 1014.38 1014.48 1013.81 1013.60 1013.45 1013.30 1013.12 1013.42 1013.83 1013.85 1013.04 1012.89 1012.84 1012.79 1012.65 1012.44 1012.20 1011.71 1011.03 1010.43 1009.47 1008.65 1007.69 1006.73 1005.54 1004.46 1003.23 1002.05 1001.20 1000.24
1017.80 1017.62 1017.56 1017.20 1017.02 1016.81 1016.57 1016.27 1016.02 1015.65 1015.01 1014.21 1013.42 1013.31 1012.82 1012.94 1012.80 1012.35 1012.55 1012.87 1012.81 1013.10 1012.56 1011.99 1011.74 1011.70 1011.70 1011.71 1011.50 1011.26 1010.86 1010.43 1009.85 1008.95 1007.99 1007.14 1006.28 1005.52 1004.43 1003.25 1002.17 1000.99 999.85
1016.95 1016.77 1016.52 1016.32 1016.10 1015.86 1015.62 1015.34 1015.03 1014.70 1014.31 1013.79 1013.14 1012.46 1011.71 1011.65 1011.52 1011.49 1011.71 1011.84 1011.32 1011.24 1010.99 1010.80 1010.50 1010.45 1010.42 1010.44 1010.39 1010.34 1010.05 1009.54 1009.00 1008.41 1007.59 1006.82 1005.99 1005.27 1004.30 1003.30 1001.99 1000.75 999.52
1016.05 1015.77 1015.60 1015.41 1015.10 1014.84 1014.57 1014.35 1013.95 1013.59 1013.22 1012.76 1012.33 1011.68 1011.05 1011.42 1011.08 1010.88 1010.71 1010.41 1010.20 1009.72 1009.43 1009.38 1009.12 1009.11 1009.05 1009.21 1009.32 1009.33 1009.09 1008.63 1008.20 1007.88 1007.35 1006.73 1005.92 1005.12 1004.19 1003.18 1001.83 1000.62 999.01
1015.09 1014.76 1014.48 1014.41 1014.12 1013.80 1013.57 1013.24 1012.84 1012.57 1012.20 1011.73 1011.14 1010.44 1010.05 1010.70 1010.18 1009.77 1009.33 1009.04 1008.68 1008.32 1008.11 1008.00 1007.80 1007.74 1007.73 1007.84 1008.06 1008.19 1008.05 1007.88 1007.69 1007.37 1007.04 1006.49 1005.70 1004.91 1004.05 1003.00 1001.76 1000.60 999.33
1014.05 1013.69 1013.45 1013.23 1012.90 1012.76 1012.45 1012.18 1011.87 1011.55 1011.15 1010.73 1010.06 1009.54 1009.19 1009.59 1009.27 1008.91 1008.47 1007.91 1007.53 1007.41 1007.09 1006.98 1006.66 1006.41 1006.25 1006.43 1006.64 1006.91 1007.02 1006.97 1006.90 1006.80 1006.49 1006.13 1005.49 1004.59 1003.74 1002.76 1001.56 1000.56 999.41
1012.98 1012.70 1012.38 1012.04 1011.78 1011.54 1011.36 1011.00 1010.72 1010.36 1009.93 1009.50 1009.11 1008.78 1008.48 1008.28 1007.85 1007.50 1007.22 1006.85 1006.63 1006.58 1006.53 1006.56 1006.22 1006.01 1005.82 1005.63 1005.53 1005.83 1006.06 1006.07 1005.92 1005.80 1005.74 1005.53 1004.98 1004.32 1003.54 1002.68 1001.68 1000.71 999.92
1011.92 1011.76 1011.52 1011.14 1010.84 1010.51 1010.21 1009.78 1009.38 1009.02 1008.72 1008.45 1008.26 1008.05 1007.90 1007.88 1008.02 1007.51 1007.09 1006.69 1006.29 1005.69 1005.91 1005.93 1005.69 1005.42 1005.31 1005.20 1005.34 1004.77 1004.74 1004.95 1005.20 1005.13 1004.93 1004.66 1004.21 1003.85 1003.23 1002.59 1001.71 1000.80 1000.05
1010.95 1010.69 1010.45 1010.07 1009.76 1009.44 1009.18 1008.94 1008.78 1008.58 1008.36 1008.20 1008.17 1008.03 1008.15 1007.54 1007.07 1007.09 1007.14 1006.71 1006.96 1006.44 1006.22 1005.98 1005.66 1005.44 1005.54 1005.49 1005.18 1005.40 1004.83 1004.63 1004.88 1004.35 1004.23 1004.02 1003.53 1003.23 1002.82 1002.40 1001.62 1000.80 999.98
1009.82 1009.56 1009.17 1008.77 1008.53 1008.36 1008.37 1008.32 1008.30 1008.27 1008.50 1008.31 1008.12 1008.43 1008.10 1007.94 1007.45 1006.77 1007.39 1006.55 1006.72 1007.07 1006.65 1006.15 1005.60 1005.90 1005.78 1005.52 1005.44 1005.29 1005.18 1004.69 1004.53 1004.11 1003.89 1003.36 1002.98 1002.69 1002.44 1002.18 1001.56 1000.79 1000.00
Thickness
5712 5708 5714 5695 5706 5705 5702 5699 5699 5698 5696 5693 5692 5689 5685 5686 5689 5686 5685 5683 5686 5685 5682 5684 5687 5686 5688 5689 5691 5692 5694 5696 5706 5725 5732 5738 5743 5747 5754 5757 5762 5768 5776
5701 5685 5695 5695 5693 5695 5695 5693 5689 5687 5688 5685 5682 5676 5673 5674 5676 5678 5675 5673 5677 5674 5671 5672 5674 5678 5678 5680 5682 5684 5686 5689 5695 5711 5721 5730 5734 5737 5743 5749 5755 5761 5768
5690 5696 5689 5690 5688 5688 5685 5682 5679 5676 5676 5674 5669 5667 5667 5666 5664 5663 5664 5664 5663 5664 5664 5665 5666 5668 5669 5672 5673 5677 5680 5684 5688 5695 5712 5716 5723 5726 5735 5741 5746 5752 5756
5676 5674 5677 5676 5672 5675 5674 5669 5668 5665 5663 5660 5660 5657 5655 5656 5653 5653 5654 5654 5653 5653 5654 5655 5658 5658 5658 5662 5667 5668 5672 5676 5681 5686 5694 5701 5706 5713 5719 5728 5738 5742 5749
5670 5670 5671 5669 5666 5663 5660 5656 5653 5652 5650 5647 5644 5645 5643 5642 5643 5643 5645 5644 5643 5645 5644 5643 5645 5645 5649 5654 5656 5659 5661 5666 5671 5677 5683 5686 5691 5695 5701 5710 5718 5728 5735
5662 5659 5653 5651 5648 5647 5643 5642 5641 5636 5636 5634 5633 5632 5631 5633 5636 5636 5635 5634 5634 5634 5635 5636 5635 5636 5638 5643 5643 5643 5645 5651 5658 5663 5670 5674 5679 5679 5685 5691 5699 5708 5721
5654 5649 5643 5638 5633 5631 5630 5628 5627 5627 5626 5624 5623 5622 5622 5624 5627 5627 5628 5623 5625 5622 5624 5624 5625 5625 5627 5630 5631 5631 5635 5638 5642 5645 5655 5660 5664 5665 5668 5673 5679 5689 5699
5642 5637 5636 5632 5630 5626 5622 5621 5619 5618 5616 5615 5614 5613 5614 5615 5616 5615 5616 5615 5615 5614 5614 5615 5614 5615 5616 5618 5620 5623 5627 5630 5633 5634 5638 5644 5647 5650 5650 5655 5663 5672 5681
5633 5631 5626 5622 5617 5612 5610 5608 5607 5605 5604 5603 5603 5601 5601 5604 5605 5607 5608 5606 5606 5607 5605 5602 5602 5605 5606 5605 5605 5611 5616 5621 5622 5623 5625 5627 5629 5634 5632 5635 5644 5651 5665
5624 5620 5617 5613 5608 5604 5602 5599 5595 5592 5591 5589 5590 5590 5593 5594 5597 5597 5597 5597 5596 5596 5596 5597 5596 5596 5593 5591 5590 5597 5603 5610 5615 5616 5616 5618 5620 5624 5623 5625 5631 5639 5646
5620 5617 5614 5610 5605 5601 5596 5591 5584 5578 5574 5573 5574 5579 5582 5585 5590 5593 5592 5591 5592 5590 5589 5591 5590 5587 5585 5583 5581 5582 5587 5593 5604 5606 5609 5610 5612 5613 5615 5620 5624 5630 5637
5616 5613 5609 5605 5600 5596 5589 5581 5575 5569 5566 5566 5568 5573 5579 5583 5586 5589 5589 5587 5585 5582 5581 5581 5582 5582 5580 5578 5576 5576 5578 5584 5592 5597 5598 5602 5605 5609 5613 5615 5620 5625 5629
5609 5605 5601 5597 5592 5587 5581 5576 5572 5567 5564 5564 5565 5568 5573 5579 5581 5582 5582 5582 5578 5576 5575 5573 5573 5573 5574 5577 5577 5574 5573 5575 5580 5587 5592 5597 5602 5606 5607 5608 5612 5616 5622
5600 5596 5593 5589 5587 5585 5581 5577 5572 5569 5567 5565 5566 5568 5571 5574 5577 5579 5577 5576 5574 5572 5569 5569 5568 5566 5566 5568 5571 5574 5572 5567 5570 5574 5580 5587 5593 5597 5601 5603 5604 5605 5608
5597 5594 5591 5588 5586 5585 5582 5579 5575 5577 5575 5572 5571 5571 5571 5573 5578 5578 5576 5576 5573 5572 5568 5568 5567 5564 5563 5561 5561 5563 5563 5562 5562 5562 5565 5572 5580 5587 5592 5595 5597 5597 5598
5595 5593 5590 5588 5587 5584 5581 5581 5583 5583 5582 5577 5576 5573 5578 5576 5577 5576 5574 5573 5570 5566 5566 5567 5565 5560 5555 5554 5552 5551 5548 5547 5548 5552 5555 5558 5564 5571 5579 5586 5590 5590 5590
5595 5594 5591 5588 5587 5585 5584 5581 5581 5587 5583 5583 5580 5578 5573 5578 5577 5575 5574 5572 5566 5560 5561 5565 5562 5558 5553 5549 5545 5543 5543 5543 5543 5547 5551 5555 5559 5564 5569 5575 5581 5583 5584
5596 5594 5592 5590 5588 5587 5585 5584 5582 5580 5581 5584 5587 5583 5584 5577 5576 5576 5571 5564 5564 5556 5560 5562 5560 5556 5553 5548 5545 5542 5540 5540 5540 5544 5549 5552 5555 5554 5558 5563 5567 5573 5575
5598 5596 5595 5594 5592 5590 5589 5587 5585 5583 5582 5583 5586 5587 5588 5584 5580 5574 5569 5570 5573 5569 5564 5560 5558 5556 5551 5547 5544 5541 5539 5540 5539 5540 5543 5545 5548 5549 5551 5553 5560 5565 5570
5602 5601 5600 5598 5597 5595 5593 5590 5589 5588 5587 5586 5586 5587 5589 5582 5583 5582 5573 5570 5570 5570 5568 5563 5561 5556 5553 5548 5544 5540 5538 5538 5538 5536 5536 5536 5539 5542 5543 5546 5553 5558 5569
5607 5607 5606 5603 5600 5598 5596 5594 5593 5591 5589 5589 5590 5591 5588 5582 5582 5581 5579 5575 5572 5571 5569 5565 5562 5558 5554 5549 5542 5537 5535 5534 5532 5531 5529 5529 5530 5533 5537 5539 5545 5549 5555
5612 5611 5610 5607 5605 5601 5599 5597 5594 5593 5591 5590 5592 5592 5586 5580 5579 5578 5577 5576 5573 5569 5566 5562 5560 5557 5554 5547 5542 5536 5532 5529 5527 5525 5522 5521 5524 5527 5530 5535 5540 5542 5548
5615 5614 5613 5611 5609 5605 5603 5601 5598 5596 5595 5594 5592 5590 5588 5584 5580 5576 5573 5571 5568 5564 5558 5552 5550 5548 5545 5540 5536 5531 5527 5524 5524 5521 5518 5516 5518 5521 5523 5527 5532 5535 5538
5618 5615 5613 5612 5610 5608 5605 5604 5602 5597 5595 5593 5589 5585 5580 5574 5567 5565 5562 5560 5558 5557 5549 5544 5540 5538 5534 5530 5523 5523 5521 5517 5514 5513 5512 5512 5514 5512 5517 5519 5522 5527 5530
5619 5617 5615 5614 5613 5610 5607 5603 5598 5594 5589 5583 5577 5571 5562 5561 5559 5553 5546 5542 5534 5532 5527 5524 5522 5520 5514 5511 5510 5503 5504 5503 5500 5503 5503 5503 5507 5507 5508 5512 5516 5518 5524
5623 5621 5620 5619 5615 5610 5604 5597 5591 5584 5575 5569 5563 5553 5548 5543 5538 5537 5524 5524 5516 5507 5505 5503 5503 5496 5491 5488 5486 5485 5483 5485 5483 5487 5487 5493 5496 5498 5499 5501 5508 5512 5517